{"data":{"norad_id":68624,"epoch":"2026-09-20T00:00:01.296864Z","epoch_age_seconds":87147,"freshness":"FRESH","line1":"1 68624U 26073Y   26263.00001501  .00012121  00000+0  37714-3 0  9991","line2":"2 68624  97.2846 101.0182 0001735  97.8677 262.2763 15.33447532 25661","mean_motion":15.33447532,"eccentricity":0.0001735,"inclination_deg":97.2846,"raan_deg":101.0182,"arg_perigee_deg":97.8677,"mean_anomaly_deg":262.2763,"bstar":0.00037714,"rev_number":2566,"period_min":93.906049600659,"perigee_km":464.34826383469,"apogee_km":466.72301824113,"semimajor_km":6843.6726410379,"source":"CELESTRAK","updated_at":"2026-09-20T09:00:43.948139Z"}}